Weather History for KFOZ - March, 2014

Change the Weather History Date:

Tuesday, March 25, 2014

  Actual Average (KHIB) Record (KHIB)
Temperature  
Mean Temperature 8 °F -  
Max Temperature 19 °F 37 °F - (-1)
Min Temperature -5 °F 16 °F - (-1)
Degree Days  
Heating Degree Days 56    
Moisture  
Dew Point -3 °F    
Average Humidity 61    
Maximum Humidity 84    
Minimum Humidity 39    
Precipitation  
Precipitation 0.00 in - - ()
Sea Level Pressure  
Sea Level Pressure 30.11 in    
Wind  
Wind Speed 4 mph (West)    
Max Wind Speed 15 mph    
Max Gust Speed 24 mph    
Visibility 10 miles    
Events      
Averages and records for this station are not official NWS values.
T = Trace of Precipitation, MM = Missing Value Source: NWS Daily Summary

Daily Weather History Graph

Daily Weather History Graph

Search for Another Location

Airport or City:

Trip Planner

Search our weather history database for the weather conditions in past years. The results will help you decide how hot, cold, wet, or windy it might be!

Date:

Astronomy

Mar. 25, 2014 Rise Set
Actual Time 7:07 AM CDT 7:34 PM CDT
Civil Twilight 6:36 AM CDT 8:05 PM CDT
Nautical Twilight 5:59 AM CDT 8:42 PM CDT
Astronomical Twilight 5:21 AM CDT 9:20 PM CDT
Moon 3:51 AM CDT (3/25) 1:45 PM CDT (3/25)
Length of Visible Light 13h 29m
Length of Day
12h 27m
Waning Crescent, 32% of the Moon is Illuminated
Mar 25
Waning Crescent
Mar 30
New
Apr 7
First Quarter
Apr 15
Full
Apr 22
Last Quarter

Hourly Weather History & Observations

Time (CDT) Temp. Windchill Dew Point Humidity Pressure Visibility Wind Dir Wind Speed Gust Speed Precip Events Conditions
12:13 AM 6.8 °F - -4.0 °F 61% 30.10 in 10.0 mi Calm Calm - N/A   Clear
12:33 AM 6.8 °F -0.1 °F -4.0 °F 61% 30.10 in 10.0 mi WNW 3.5 mph - N/A   Clear
12:53 AM 5.0 °F -4.1 °F -2.2 °F 72% 30.11 in 10.0 mi WNW 4.6 mph - N/A   Clear
1:13 AM 5.0 °F -4.1 °F -2.2 °F 72% 30.11 in 10.0 mi NW 4.6 mph - N/A   Clear
1:33 AM 5.0 °F -2.1 °F -2.2 °F 72% 30.11 in 10.0 mi NW 3.5 mph - N/A   Clear
1:53 AM 3.2 °F -6.2 °F -2.2 °F 78% 30.11 in 10.0 mi NW 4.6 mph - N/A   Clear
2:13 AM 3.2 °F -6.2 °F -4.0 °F 72% 30.11 in 10.0 mi WNW 4.6 mph - N/A   Clear
2:33 AM 3.2 °F -6.2 °F -4.0 °F 72% 30.12 in 10.0 mi NW 4.6 mph - N/A   Clear
2:53 AM 3.2 °F -6.2 °F -4.0 °F 72% 30.11 in 10.0 mi WNW 4.6 mph - N/A   Clear
3:13 AM 3.2 °F -6.2 °F -5.8 °F 66% 30.12 in 10.0 mi NW 4.6 mph - N/A   Clear
3:33 AM 1.4 °F -8.3 °F -5.8 °F 72% 30.12 in 10.0 mi WNW 4.6 mph - N/A   Clear
3:53 AM 1.4 °F -6.2 °F -5.8 °F 72% 30.12 in 10.0 mi WNW 3.5 mph - N/A   Clear
4:13 AM 1.4 °F -8.3 °F -5.8 °F 72% 30.13 in 10.0 mi West 4.6 mph - N/A   Clear
4:33 AM 1.4 °F - -5.8 °F 72% 30.12 in 10.0 mi Calm Calm - N/A   Clear
4:53 AM -0.4 °F -8.3 °F -5.8 °F 78% 30.13 in 10.0 mi WNW 3.5 mph - N/A   Clear
5:13 AM -0.4 °F -8.3 °F -7.6 °F 72% 30.13 in 10.0 mi WNW 3.5 mph - N/A   Clear
5:33 AM -0.4 °F -8.3 °F -5.8 °F 78% 30.14 in 10.0 mi West 3.5 mph - N/A   Clear
5:53 AM -0.4 °F - -7.6 °F 72% 30.14 in 10.0 mi Calm Calm - N/A   Clear
6:13 AM -0.4 °F - -7.6 °F 72% 30.14 in 10.0 mi Calm Calm - N/A   Scattered Clouds
6:33 AM -0.4 °F - -7.6 °F 72% 30.14 in 10.0 mi Calm Calm - N/A   Clear
6:53 AM -2.2 °F - -7.6 °F 78% 30.15 in 10.0 mi Calm Calm - N/A   Scattered Clouds
7:13 AM -2.2 °F - -7.6 °F 78% 30.15 in 10.0 mi Calm Calm - N/A   Clear
7:33 AM -2.2 °F - -7.6 °F 78% 30.15 in 10.0 mi Calm Calm - N/A   Clear
7:53 AM -2.2 °F -10.4 °F -7.6 °F 78% 30.15 in 10.0 mi WSW 3.5 mph - N/A   Clear
8:13 AM -0.4 °F -8.3 °F -5.8 °F 78% 30.14 in 10.0 mi WSW 3.5 mph - N/A   Clear
8:33 AM 3.2 °F - -5.8 °F 66% 30.14 in 10.0 mi Calm Calm - N/A   Clear
8:53 AM 5.0 °F -4.1 °F -4.0 °F 66% 30.13 in 10.0 mi West 4.6 mph - N/A   Clear
9:13 AM 6.8 °F -3.5 °F -2.2 °F 67% 30.14 in 10.0 mi WNW 5.8 mph - N/A   Scattered Clouds
9:33 AM 8.6 °F 0.1 °F -0.4 °F 67% 30.14 in 10.0 mi WNW 4.6 mph - N/A   Mostly Cloudy
9:53 AM 8.6 °F -1.3 °F -0.4 °F 67% 30.14 in 10.0 mi NW 5.8 mph 17.3 mph N/A   Mostly Cloudy
10:13 AM 10.4 °F -1.5 °F -0.4 °F 62% 30.15 in 10.0 mi WNW 8.1 mph - N/A   Mostly Cloudy
10:33 AM 12.2 °F 0.7 °F 1.4 °F 62% 30.15 in 10.0 mi West 8.1 mph - N/A   Scattered Clouds
10:53 AM 12.2 °F 1.7 °F -0.4 °F 57% 30.14 in 10.0 mi West 6.9 mph - N/A   Scattered Clouds
11:13 AM 14.0 °F 1.2 °F -2.2 °F 49% 30.14 in 10.0 mi WNW 10.4 mph 16.1 mph N/A   Scattered Clouds
11:33 AM 14.0 °F 6.5 °F -2.2 °F 49% 30.14 in 10.0 mi NW 4.6 mph 18.4 mph N/A   Scattered Clouds
11:53 AM 15.8 °F 2.1 °F -4.0 °F 41% 30.14 in 10.0 mi NW 12.7 mph 23.0 mph N/A   Scattered Clouds
12:13 PM 15.8 °F 1.4 °F -2.2 °F 45% 30.13 in 10.0 mi West 13.8 mph 24.2 mph N/A   Scattered Clouds
12:33 PM 15.8 °F 6.1 °F -0.4 °F 49% 30.13 in 10.0 mi NW 6.9 mph 24.2 mph N/A   Scattered Clouds
12:53 PM 17.6 °F 3.2 °F -0.4 °F 45% 30.12 in 10.0 mi West 15.0 mph 19.6 mph N/A   Scattered Clouds
1:13 PM 17.6 °F 6.4 °F -0.4 °F 45% 30.12 in 10.0 mi WNW 9.2 mph - N/A   Scattered Clouds
1:33 PM 17.6 °F 5.7 °F -0.4 °F 45% 30.11 in 10.0 mi NW 10.4 mph 16.1 mph N/A   Scattered Clouds
1:53 PM 17.6 °F 7.3 °F -2.2 °F 42% 30.11 in 10.0 mi WNW 8.1 mph 20.7 mph N/A   Scattered Clouds
2:13 PM 19.4 °F 11.5 °F -2.2 °F 39% 30.10 in 10.0 mi WNW 5.8 mph 20.7 mph N/A   Scattered Clouds
2:33 PM 19.4 °F 7.9 °F -2.2 °F 39% 30.09 in 10.0 mi WNW 10.4 mph 20.7 mph N/A   Scattered Clouds
2:53 PM 19.4 °F 9.5 °F -2.2 °F 39% 30.09 in 10.0 mi West 8.1 mph 16.1 mph N/A   Scattered Clouds
3:13 PM 17.6 °F 6.4 °F -2.2 °F 42% 30.09 in 10.0 mi WNW 9.2 mph 18.4 mph N/A   Scattered Clouds
3:33 PM 19.4 °F 7.9 °F -0.4 °F 42% 30.08 in 10.0 mi West 10.4 mph 23.0 mph N/A   Scattered Clouds
3:53 PM 19.4 °F 9.5 °F -0.4 °F 42% 30.08 in 10.0 mi West 8.1 mph 18.4 mph N/A   Scattered Clouds
4:13 PM 19.4 °F 7.2 °F -0.4 °F 42% 30.08 in 10.0 mi WSW 11.5 mph 19.6 mph N/A   Scattered Clouds
4:33 PM 19.4 °F 7.2 °F -0.4 °F 42% 30.08 in 10.0 mi WSW 11.5 mph 17.3 mph N/A   Scattered Clouds
4:53 PM 19.4 °F 8.6 °F -0.4 °F 42% 30.08 in 10.0 mi West 9.2 mph 17.3 mph N/A   Scattered Clouds
5:13 PM 17.6 °F 5.0 °F -0.4 °F 45% 30.08 in 7.0 mi West 11.5 mph 18.4 mph N/A   Scattered Clouds
5:33 PM 17.6 °F 9.3 °F -0.4 °F 45% 30.08 in 10.0 mi West 5.8 mph 16.1 mph N/A   Clear
5:53 PM 17.6 °F 8.2 °F -0.4 °F 45% 30.08 in 10.0 mi West 6.9 mph 16.1 mph N/A   Clear
6:13 PM 17.6 °F 9.3 °F -0.4 °F 45% 30.08 in 10.0 mi West 5.8 mph - N/A   Clear
6:33 PM 17.6 °F 6.4 °F -0.4 °F 45% 30.08 in 10.0 mi West 9.2 mph - N/A   Clear
6:53 PM 15.8 °F 6.1 °F -0.4 °F 49% 30.08 in 10.0 mi West 6.9 mph - N/A   Clear
7:13 PM 15.8 °F 6.1 °F -0.4 °F 49% 30.08 in 10.0 mi West 6.9 mph - N/A   Clear
7:33 PM 14.0 °F 6.5 °F -0.4 °F 53% 30.07 in 10.0 mi West 4.6 mph - N/A   Clear
7:53 PM 12.2 °F 1.7 °F -0.4 °F 57% 30.07 in 10.0 mi West 6.9 mph - N/A   Clear
8:13 PM 12.2 °F 4.3 °F -0.4 °F 57% 30.07 in 10.0 mi WSW 4.6 mph - N/A   Clear
8:33 PM 10.4 °F - -0.4 °F 62% 30.07 in 10.0 mi Calm Calm - N/A   Clear
8:53 PM 10.4 °F - -2.2 °F 57% 30.06 in 10.0 mi Calm Calm - N/A   Clear
9:13 PM 5.0 °F -2.1 °F -4.0 °F 66% 30.07 in 10.0 mi SW 3.5 mph - N/A   Clear
9:33 PM 3.2 °F - -4.0 °F 72% 30.06 in 10.0 mi Calm Calm - N/A   Clear
9:53 PM 3.2 °F - -4.0 °F 72% 30.05 in 10.0 mi Calm Calm - N/A   Clear
10:13 PM 1.4 °F - -4.0 °F 78% 30.05 in 10.0 mi Calm Calm - N/A   Clear
10:33 PM -0.4 °F - -5.8 °F 78% 30.05 in 10.0 mi Calm Calm - N/A   Clear
10:53 PM -2.2 °F - -7.6 °F 78% 30.05 in 10.0 mi Calm Calm - N/A   Clear
11:13 PM -2.2 °F - -7.6 °F 78% 30.05 in 10.0 mi Calm Calm - N/A   Clear
11:33 PM -2.2 °F - -7.6 °F 78% 30.05 in 10.0 mi Calm Calm - N/A   Clear
11:53 PM -5.8 °F - -9.4 °F 84% 30.05 in 10.0 mi Calm Calm - N/A   Clear